User: anonymous   Login
Location: Unspecified
(0.0000°N, 0.0000°E)
Time: 19:16:15
(UTC+00:00)
Language:

Vela 4A - Orbit

View from above orbital plane
View from above orbital plane
View from above satellite
View from above satellite

Ground track
Ground track

The orbit data is extracted from the following two-line orbital elements,

1 02765U 67040A   15146.79065458 -.00000916  00000-0  00000+0 0  9994
2 02765 005.3218 342.9153 4673530 199.8575 001.2436 00.21483910 37723
Epoch (UTC): 26 May 2015 18:58:32
Eccentricity: 0.4673530
inclination: 5.3218°
perigee height: 56345 km
apogee height: 166413 km
right ascension of ascending node: 342.9153°
argument of perigee: 199.8575°
revolutions per day: 0.21483910
mean anomaly at epoch: 1.2436°
orbit number at epoch: 3772

The dashed part of the orbit path shows where the satellite is in the earth's shadow,  

DLR